FW6341 Weather Reports


Display with metric or nautical units.
time (UTC)temp
F
wind
direction
speed
MPH
gust
MPH
rain 1hr
in
rain 24hr
in
rain mn
in
humidity
%
barometer
mb
20260509223540 78 172 1.0 1.0 0.00 0.00 0.00 42 1016.7
20260509223038 79 146 0.0 1.0 0.00 0.00 0.00 41 1016.8
20260509222533 78 221 0.0 1.0 0.00 0.00 0.00 44 1016.9
20260509222035 78 180 1.0 1.0 0.00 0.00 0.00 43 1017.0
20260509221525 78 245 3.0 3.0 0.00 0.00 0.00 44 1017.1
20260509221022 78 177 1.0 1.0 0.00 0.00 0.00 45 1017.0
20260509220518 78 284 3.0 3.0 0.00 0.00 0.00 45 1017.2
20260509220014 78 81 1.0 1.0 0.00 0.00 0.00 46 1017.1
20260509215509 78 96 1.0 1.0 0.00 0.00 0.00 47 1017.4
20260509215007 78 71 1.0 1.0 0.00 0.00 0.00 45 1017.4
20260509214504 78 185 1.0 1.0 0.00 0.00 0.00 46 1017.7
20260509214001 78 279 3.0 5.0 0.00 0.00 0.00 45 1017.6
20260509213457 79 103 0.0 0.0 0.00 0.00 0.00 47 1017.7
20260509212954 78 313 2.0 2.0 0.00 0.00 0.00 47 1017.6
20260509212451 77 273 1.0 2.0 0.00 0.00 0.00 47 1017.6
20260509211948 77 258 1.0 1.0 0.00 0.00 0.00 46 1017.7
20260509211443 78 210 1.0 1.0 0.00 0.00 0.00 46 1017.8
20260509210940 77 106 2.0 2.0 0.00 0.00 0.00 48 1017.6
20260509210437 76 146 0.0 0.0 0.00 0.00 0.00 48 1017.6
20260509205932 76 303 1.0 1.0 0.00 0.00 0.00 49 1018.0
20260509205427 76 146 1.0 2.0 0.00 0.00 0.00 50 1017.9
20260509204923 75 131 1.0 1.0 0.00 0.00 0.00 54 1018.2
20260509204420 76 152 1.0 1.0 0.00 0.00 0.00 51 1018.1
20260509203917 75 151 0.0 0.0 0.00 0.00 0.00 52 1018.2
20260509203412 75 288 2.0 2.0 0.00 0.00 0.00 51 1018.3
20260509202910 75 88 1.0 1.0 0.00 0.00 0.00 51 1018.3
20260509202406 75 236 1.0 2.0 0.00 0.00 0.00 50 1018.4
20260509201901 74 242 0.0 1.0 0.00 0.00 0.00 59 1018.6
20260509201356 74 307 3.0 5.0 0.00 0.00 0.00 52 1018.7
20260509200854 74 135 1.0 1.0 0.00 0.00 0.00 52 1018.9
20260509200348 74 297 1.0 1.0 0.00 0.00 0.00 53 1018.7
20260509195846 74 137 1.0 1.0 0.00 0.00 0.00 53 1019.1
20260509195346 73 117 0.0 1.0 0.00 0.00 0.00 58 1018.9
20260509194845 73 163 1.0 1.0 0.00 0.00 0.00 53 1019.1
20260509194342 73 73 0.0 1.0 0.00 0.00 0.00 55 1019.3
20260509193838 72 190 2.0 2.0 0.00 0.00 0.00 54 1019.3
20260509193338 73 285 1.0 2.0 0.00 0.00 0.00 55 1019.3
20260509192834 74 248 2.0 3.0 0.00 0.00 0.00 53 1019.5
20260509192330 73 153 0.0 0.0 0.00 0.00 0.00 55 1019.4
20260509191826 73 150 0.0 1.0 0.00 0.00 0.00 56 1019.8
20260509191322 71 279 1.0 2.0 0.00 0.00 0.00 57 1019.8
20260509190818 72 306 1.0 1.0 0.00 0.00 0.00 57 1019.6
20260509190315 72 300 1.0 2.0 0.00 0.00 0.00 60 1019.9
20260509185813 71 127 0.0 0.0 0.00 0.00 0.00 57 1020.0
20260509185309 70 302 1.0 1.0 0.00 0.00 0.00 58 1020.1
20260509184806 70 285 2.0 3.0 0.00 0.00 0.00 57 1020.2
20260509184304 69 101 0.0 1.0 0.00 0.00 0.00 58 1020.1
20260509183800 69 304 1.0 2.0 0.00 0.00 0.00 59 1020.2
20260509183255 69 102 0.0 1.0 0.00 0.00 0.00 63 1020.5
20260509182751 68 103 1.0 1.0 0.00 0.00 0.00 63 1020.3
20260509182248 67 151 0.0 1.0 0.00 0.00 0.00 64 1020.3
20260509181745 67 106 0.0 1.0 0.00 0.00 0.00 63 1020.4
20260509181243 66 109 0.0 0.0 0.00 0.00 0.00 64 1020.4
20260509180740 66 109 1.0 1.0 0.00 0.00 0.00 66 1020.3
20260509180236 65 95 0.0 1.0 0.00 0.00 0.00 68 1020.5
20260509175732 65 175 1.0 1.0 0.00 0.00 0.00 66 1020.3
20260509175229 65 103 1.0 1.0 0.00 0.00 0.00 66 1020.5
20260509174725 65 228 1.0 1.0 0.00 0.00 0.00 68 1020.7
20260509174220 64 198 1.0 1.0 0.00 0.00 0.00 69 1020.7
20260509173717 64 98 0.0 1.0 0.00 0.00 0.00 71 1020.5
20260509173213 63 111 0.0 0.0 0.00 0.00 0.00 70 1020.9
20260509172709 63 95 1.0 2.0 0.00 0.00 0.00 70 1021.2
20260509172205 62 108 0.0 1.0 0.00 0.00 0.00 72 1021.1
20260509171701 61 344 2.0 2.0 0.00 0.00 0.00 73 1021.2
20260509171157 61 161 0.0 0.0 0.00 0.00 0.00 73 1021.2
20260509170654 61 157 1.0 1.0 0.00 0.00 0.00 75 1021.3
20260509170150 60 110 0.0 0.0 0.00 0.00 0.00 74 1021.1
20260509165648 60 99 1.0 1.0 0.00 0.00 0.00 75 1021.4
20260509165144 60 165 1.0 1.0 0.00 0.00 0.00 76 1021.3
20260509164640 60 149 1.0 1.0 0.00 0.00 0.00 76 1021.5
20260509164136 59 110 0.0 0.0 0.00 0.00 0.00 77 1021.6
20260509163634 59 136 0.0 1.0 0.00 0.00 0.00 78 1021.7
20260509163129 58 106 0.0 1.0 0.00 0.00 0.00 78 1021.7
20260509162627 58 97 0.0 1.0 0.00 0.00 0.00 79 1021.9
20260509162123 58 168 0.0 1.0 0.00 0.00 0.00 80 1022.0
20260509161619 57 86 1.0 1.0 0.00 0.00 0.00 80 1022.0
20260509161114 57 101 0.0 0.0 0.00 0.00 0.00 82 1022.0
20260509160611 56 128 0.0 0.0 0.00 0.00 0.00 83 1022.1
20260509160106 56 140 0.0 0.0 0.00 0.00 0.00 84 1022.0
20260509155602 56 107 0.0 1.0 0.00 0.00 0.00 85 1021.8
20260509155059 55 131 0.0 0.0 0.00 0.00 0.00 86 1021.8
20260509154555 55 106 0.0 0.0 0.00 0.00 0.00 86 1022.1
20260509154052 55 114 0.0 0.0 0.00 0.00 0.00 87 1022.1
20260509153549 55 126 0.0 0.0 0.00 0.00 0.00 87 1022.2
20260509153040 54 254 0.0 0.0 0.00 0.00 0.00 87 1022.4
20260509152536 54 143 0.0 1.0 0.00 0.00 0.00 88 1022.2
20260509152033 53 92 0.0 0.0 0.00 0.00 0.00 90 1022.4
20260509151529 53 109 0.0 0.0 0.00 0.00 0.00 91 1022.7
20260509151027 52 92 0.0 0.0 0.00 0.00 0.00 92 1022.4
20260509150525 51 100 0.0 1.0 0.00 0.00 0.00 95 1022.5
20260509150023 51 118 0.0 0.0 0.00 0.00 0.00 98 1022.5
20260509145518 50 83 1.0 1.0 0.00 0.00 0.00 99 1022.5
20260509145013 50 122 0.0 0.0 0.00 0.00 0.00 99 1022.5
20260509144511 49 122 0.0 0.0 0.00 0.00 0.00 99 1022.4
20260509144008 48 122 0.0 0.0 0.00 0.00 0.00 99 1022.3
20260509143505 48 122 0.0 0.0 0.00 0.00 0.00 99 1022.5
20260509143003 47 122 0.0 0.0 0.00 0.00 0.00 99 1022.5
20260509142458 47 122 0.0 0.0 0.00 0.00 0.00 99 1022.5
20260509141953 46 122 0.0 0.0 0.00 0.00 0.00 99 1022.2
20260509141450 45 122 0.0 0.0 0.00 0.00 0.00 99 1022.2
20260509140947 45 122 0.0 0.0 0.00 0.00 0.00 99 1022.2
20260509140443 45 122 0.0 0.0 0.00 0.00 0.00 99 1022.3
20260509135942 45 122 0.0 0.0 0.00 0.00 0.00 99 1022.3
20260509135439 44 122 0.0 0.0 0.00 0.00 0.00 99 1022.3
20260509134936 44 122 0.0 0.0 0.00 0.00 0.00 99 1021.8
20260509134433 44 123 0.0 0.0 0.00 0.00 0.00 99 1022.0
20260509133931 44 123 0.0 0.0 0.00 0.00 0.00 99 1022.1
20260509133427 44 123 0.0 0.0 0.00 0.00 0.00 99 1022.2
20260509132925 44 123 0.0 0.0 0.00 0.00 0.00 99 1022.1
20260509132423 44 123 0.0 0.0 0.00 0.00 0.00 99 1022.0
20260509131920 44 123 0.0 0.0 0.00 0.00 0.00 98 1022.0
20260509131417 44 123 0.0 0.0 0.00 0.00 0.00 98 1021.9
20260509130914 44 123 0.0 0.0 0.00 0.00 0.00 98 1022.0
20260509130409 44 123 0.0 0.0 0.00 0.00 0.00 98 1022.0
20260509125906 44 123 0.0 0.0 0.00 0.00 0.00 98 1022.0
20260509125403 44 123 0.0 0.0 0.00 0.00 0.00 98 1022.1
20260509124859 44 122 0.0 0.0 0.00 0.00 0.00 98 1022.2
20260509124356 44 122 0.0 0.0 0.00 0.00 0.00 98 1022.1
20260509123854 44 123 0.0 0.0 0.00 0.00 0.00 98 1022.4
20260509123351 44 122 0.0 0.0 0.00 0.00 0.00 98 1022.2
20260509122847 44 122 0.0 0.0 0.00 0.00 0.00 98 1022.1
20260509122344 44 123 0.0 0.0 0.00 0.00 0.00 98 1022.2
20260509121840 44 122 0.0 0.0 0.00 0.00 0.00 98 1022.2
20260509121337 44 122 0.0 0.0 0.00 0.00 0.00 98 1022.2
20260509120836 44 123 0.0 0.0 0.00 0.00 0.00 98 1022.2
20260509120333 44 122 0.0 0.0 0.00 0.00 0.00 98 1022.2
20260509115831 44 122 0.0 0.0 0.00 0.00 0.00 98 1022.2
20260509115328 45 123 0.0 0.0 0.00 0.00 0.00 98 1022.0
20260509114826 45 123 0.0 0.0 0.00 0.00 0.00 98 1022.1
20260509114324 45 123 0.0 0.0 0.00 0.00 0.00 97 1022.0
20260509113823 45 123 0.0 0.0 0.00 0.00 0.00 97 1022.2
20260509113320 45 123 0.0 0.0 0.00 0.00 0.00 97 1022.3
20260509112817 45 123 0.0 0.0 0.00 0.00 0.00 97 1022.3
20260509112314 46 123 0.0 0.0 0.00 0.00 0.00 97 1022.4
20260509111811 46 123 0.0 0.0 0.00 0.00 0.00 97 1022.6
20260509111308 46 122 0.0 0.0 0.00 0.00 0.00 97 1022.4
20260509110805 46 122 0.0 0.0 0.00 0.00 0.00 97 1022.6
20260509110301 46 123 0.0 0.0 0.00 0.00 0.00 97 1022.8
20260509105800 46 123 0.0 0.0 0.00 0.00 0.00 97 1022.8
20260509105257 46 123 0.0 0.0 0.00 0.00 0.00 97 1022.9
20260509104754 46 123 0.0 0.0 0.00 0.00 0.00 96 1022.6
20260509104250 46 123 0.0 0.0 0.00 0.00 0.00 96 1022.5
20260509103749 46 123 0.0 0.0 0.00 0.00 0.00 96 1022.6
20260509103245 47 123 0.0 0.0 0.00 0.00 0.00 96 1022.5
20260509102744 47 123 0.0 0.0 0.00 0.00 0.00 96 1022.5
20260509102241 47 123 0.0 0.0 0.00 0.00 0.00 96 1022.7
20260509101737 47 123 0.0 0.0 0.00 0.00 0.00 96 1022.5
20260509101233 47 123 0.0 0.0 0.00 0.00 0.00 96 1022.4
20260509100731 47 123 0.0 0.0 0.00 0.00 0.00 96 1022.6
20260509100228 47 123 0.0 0.0 0.00 0.00 0.00 95 1022.4
20260509095724 48 123 0.0 0.0 0.00 0.00 0.00 95 1022.7
20260509095222 48 123 0.0 0.0 0.00 0.00 0.00 95 1022.6
20260509094719 48 123 0.0 0.0 0.00 0.00 0.00 94 1022.6
20260509094215 48 123 0.0 0.0 0.00 0.00 0.00 94 1022.4
20260509093714 48 123 0.0 0.0 0.00 0.00 0.00 94 1022.6
20260509093210 48 123 0.0 0.0 0.00 0.00 0.00 94 1022.5
20260509092709 49 123 0.0 0.0 0.00 0.00 0.00 94 1022.6
20260509092207 49 123 0.0 0.0 0.00 0.00 0.00 93 1022.8
20260509091705 49 123 0.0 0.0 0.00 0.00 0.00 92 1022.8
20260509091200 49 123 0.0 0.0 0.00 0.00 0.00 92 1023.1
20260509090658 49 123 0.0 0.0 0.00 0.00 0.00 92 1022.7
20260509090155 50 123 0.0 0.0 0.00 0.00 0.00 92 1022.9
20260509085653 50 123 0.0 0.0 0.00 0.00 0.00 92 1022.9
20260509085149 50 123 0.0 0.0 0.00 0.00 0.00 91 1023.0
20260509084646 50 123 0.0 0.0 0.00 0.00 0.00 91 1023.2
20260509084143 51 123 0.0 0.0 0.00 0.00 0.00 91 1023.0
20260509083641 51 123 0.0 0.0 0.00 0.00 0.00 90 1023.0
20260509083137 51 123 0.0 0.0 0.00 0.00 0.00 90 1023.2
20260509082634 51 123 0.0 0.0 0.00 0.00 0.00 89 1023.3
20260509082131 51 123 0.0 0.0 0.00 0.00 0.00 89 1023.5
20260509081628 51 123 0.0 0.0 0.00 0.00 0.00 89 1023.5
20260509081125 51 123 0.0 0.0 0.00 0.00 0.00 89 1023.4
20260509080623 52 123 0.0 0.0 0.00 0.00 0.00 89 1023.4
20260509080121 52 123 0.0 0.0 0.00 0.00 0.00 88 1023.2
20260509075618 52 123 0.0 0.0 0.00 0.00 0.00 88 1023.5
20260509075116 52 123 0.0 0.0 0.00 0.00 0.00 87 1023.2
20260509074613 53 123 0.0 0.0 0.00 0.00 0.00 87 1023.4
20260509074109 53 123 0.0 0.0 0.00 0.00 0.00 86 1023.3
20260509073606 53 122 0.0 0.0 0.00 0.00 0.00 85 1023.5
20260509073102 53 122 0.0 0.0 0.00 0.00 0.00 85 1023.4
20260509072559 54 123 0.0 0.0 0.00 0.00 0.00 84 1023.3
20260509072056 54 122 0.0 0.0 0.00 0.00 0.00 84 1023.3
20260509071553 54 122 0.0 0.0 0.00 0.00 0.00 83 1023.5
20260509071050 55 122 0.0 0.0 0.00 0.00 0.00 82 1023.3
20260509070547 55 122 0.0 0.0 0.00 0.00 0.00 81 1023.2
20260509070043 56 122 0.0 0.0 0.00 0.00 0.00 80 1023.3
20260509065539 56 122 0.0 0.0 0.00 0.00 0.00 79 1023.3
20260509065035 56 122 0.0 0.0 0.00 0.00 0.00 78 1023.4
20260509064533 57 122 0.0 0.0 0.00 0.00 0.00 77 1023.3
20260509064031 57 122 0.0 0.0 0.00 0.00 0.00 77 1023.3
20260509063531 57 122 0.0 0.0 0.00 0.00 0.00 76 1023.4
20260509063029 57 122 0.0 0.0 0.00 0.00 0.00 75 1023.3
20260509062526 58 122 0.0 0.0 0.00 0.00 0.00 75 1023.3
20260509062024 58 122 0.0 0.0 0.00 0.00 0.00 75 1023.3
20260509061521 58 122 0.0 0.0 0.00 0.00 0.00 75 1023.4
20260509061018 58 123 0.0 0.0 0.00 0.00 0.00 74 1023.2
20260509060515 58 99 0.0 0.0 0.00 0.00 0.00 74 1023.1
20260509060011 58 119 0.0 0.0 0.00 0.00 0.00 74 1023.1
20260509055506 58 125 0.0 0.0 0.00 0.00 0.00 74 1023.3
20260509055003 59 124 0.0 0.0 0.00 0.00 0.00 73 1023.2
20260509054459 59 110 0.0 1.0 0.00 0.00 0.00 72 1023.2
20260509053958 59 116 0.0 0.0 0.00 0.00 0.00 72 1023.1
20260509053455 59 108 0.0 0.0 0.00 0.00 0.00 71 1023.1
20260509052953 59 127 0.0 0.0 0.00 0.00 0.00 71 1023.2
20260509052450 59 105 0.0 1.0 0.00 0.00 0.00 71 1023.1
20260509051948 60 129 0.0 0.0 0.00 0.00 0.00 70 1023.2
20260509051446 60 108 1.0 1.0 0.00 0.00 0.00 69 1023.0
20260509050942 60 123 0.0 0.0 0.00 0.00 0.00 69 1023.2
20260509050439 60 127 0.0 0.0 0.00 0.00 0.00 69 1023.2
20260509045936 60 87 1.0 1.0 0.00 0.00 0.00 68 1023.0
20260509045433 60 163 1.0 1.0 0.00 0.00 0.00 68 1023.1
20260509044929 61 114 0.0 0.0 0.00 0.00 0.00 68 1022.8
20260509044428 61 108 1.0 1.0 0.00 0.00 0.00 68 1022.7
20260509043925 61 177 1.0 1.0 0.00 0.00 0.00 68 1022.7
20260509043420 61 102 0.0 0.0 0.00 0.00 0.00 68 1022.6
20260509042916 60 134 0.0 0.0 0.00 0.00 0.00 68 1022.8
20260509042413 60 99 0.0 1.0 0.00 0.00 0.00 68 1022.6
20260509041909 60 103 0.0 0.0 0.00 0.00 0.00 70 1022.4
20260509041406 60 103 0.0 0.0 0.00 0.00 0.00 70 1022.4
20260509040904 60 103 0.0 0.0 0.00 0.00 0.00 69 1022.4
20260509040402 61 103 0.0 0.0 0.00 0.00 0.00 67 1022.3
20260509035859 61 103 0.0 0.0 0.00 0.00 0.00 66 1022.3
20260509035356 61 103 0.0 0.0 0.00 0.00 0.00 67 1022.3
20260509034852 62 103 0.0 0.0 0.00 0.00 0.00 65 1022.2
20260509034349 62 103 0.0 0.0 0.00 0.00 0.00 64 1022.1
20260509033846 62 49 1.0 1.0 0.00 0.00 0.00 63 1022.1
20260509033344 62 101 0.0 0.0 0.00 0.00 0.00 62 1021.8
20260509032840 63 115 0.0 1.0 0.00 0.00 0.00 62 1021.9
20260509032338 63 268 1.0 1.0 0.00 0.00 0.00 61 1022.0
20260509031836 63 98 0.0 1.0 0.00 0.00 0.00 61 1021.9
20260509031332 64 112 0.0 1.0 0.00 0.00 0.00 60 1021.8
20260509030830 64 101 0.0 0.0 0.00 0.00 0.00 59 1021.9
20260509030328 64 170 1.0 1.0 0.00 0.00 0.00 59 1021.8
20260509025824 64 193 1.0 1.0 0.00 0.00 0.00 59 1022.0
20260509025320 65 100 0.0 1.0 0.00 0.00 0.00 58 1021.8
20260509024816 65 106 0.0 0.0 0.00 0.00 0.00 57 1021.6
20260509024312 65 111 0.0 0.0 0.00 0.00 0.00 56 1021.5
20260509023809 66 120 0.0 0.0 0.00 0.00 0.00 56 1021.7
20260509023306 66 79 1.0 1.0 0.00 0.00 0.00 55 1021.5
20260509022802 66 147 0.0 0.0 0.00 0.00 0.00 55 1021.6
20260509022300 66 132 1.0 1.0 0.00 0.00 0.00 54 1021.4
20260509021757 66 292 1.0 1.0 0.00 0.00 0.00 54 1021.7
20260509021254 66 111 0.0 0.0 0.00 0.00 0.00 55 1021.7
20260509020752 66 107 0.0 1.0 0.00 0.00 0.00 54 1021.7
20260509020249 66 127 0.0 0.0 0.00 0.00 0.00 55 1021.6
20260509015747 66 147 0.0 1.0 0.00 0.00 0.00 54 1021.8
20260509015245 67 155 1.0 1.0 0.00 0.00 0.00 53 1021.5
20260509014741 67 137 1.0 1.0 0.00 0.00 0.00 53 1021.6
20260509014238 67 147 1.0 1.0 0.00 0.00 0.00 54 1021.6
20260509013735 67 99 1.0 1.0 0.00 0.00 0.00 53 1021.6
20260509013230 66 189 1.0 1.0 0.00 0.00 0.00 53 1021.8
20260509012727 66 119 0.0 0.0 0.00 0.00 0.00 54 1021.7
20260509012224 66 145 0.0 1.0 0.00 0.00 0.00 53 1021.5
20260509011722 66 159 0.0 1.0 0.00 0.00 0.00 53 1021.8
20260509011219 67 120 0.0 1.0 0.00 0.00 0.00 54 1021.8
20260509010717 68 277 1.0 1.0 0.00 0.00 0.00 51 1022.0
20260509010213 68 124 0.0 1.0 0.00 0.00 0.00 52 1021.6
20260509005710 67 127 0.0 0.0 0.00 0.00 0.00 54 1022.0
20260509005208 67 118 0.0 0.0 0.00 0.00 0.00 52 1022.0
20260509004702 68 110 0.0 0.0 0.00 0.00 0.00 52 1021.9
20260509004200 67 146 0.0 0.0 0.00 0.00 0.00 53 1021.9
20260509003658 68 317 3.0 5.0 0.00 0.00 0.00 51 1021.9
20260509003155 67 26 1.0 1.0 0.00 0.00 0.00 51 1022.0
20260509002652 67 349 1.0 2.0 0.00 0.00 0.00 52 1022.0
20260509002150 67 314 1.0 1.0 0.00 0.00 0.00 52 1022.1
20260509001647 67 102 1.0 1.0 0.00 0.00 0.00 54 1021.9
20260509001143 66 87 1.0 1.0 0.00 0.00 0.00 53 1022.2
20260509000641 67 205 1.0 1.0 0.00 0.00 0.00 53 1022.1
20260509000138 68 259 1.0 1.0 0.00 0.00 0.00 52 1022.1
20260508235635 67 173 1.0 1.0 0.00 0.00 0.00 51 1022.1
20260508235131 68 124 1.0 1.0 0.00 0.00 0.00 51 1022.0
20260508234629 68 279 1.0 1.0 0.00 0.00 0.00 51 1022.1
20260508234125 67 181 1.0 1.0 0.00 0.00 0.00 52 1022.1
20260508233625 68 158 0.0 1.0 0.00 0.00 0.00 50 1022.2
20260508233122 68 269 2.0 2.0 0.00 0.00 0.00 51 1022.2
20260508232619 67 185 2.0 3.0 0.00 0.00 0.00 51 1022.0
20260508232115 67 143 0.0 0.0 0.00 0.00 0.00 52 1022.2
20260508231613 66 159 0.0 1.0 0.00 0.00 0.00 52 1022.1
20260508231110 66 63 2.0 2.0 0.00 0.00 0.00 52 1022.0
20260508230606 66 155 1.0 1.0 0.00 0.00 0.00 52 1022.4
20260508225601 68 318 1.0 2.0 0.00 0.00 0.00 50 1022.2
20260508225057 68 122 1.0 1.0 0.00 0.00 0.00 52 1022.4
20260508224555 68 195 1.0 2.0 0.00 0.00 0.00 51 1022.1
20260508224052 67 149 0.0 0.0 0.00 0.00 0.00 51 1022.3
20260508223550 67 296 0.0 1.0 0.00 0.00 0.00 51 1022.2